Location: Berlin
(38.3226°N, 75.2177°W)
Time: 18:23:37
(UTC+00:00)

Cosmos 1656 - Pass Details

Date: 26 October 2020
Orbit: 797 x 851 km, 71.1° (Epoch: 03 December)

Event Time Altitude Azimuth Distance (km) Brightness Sun altitude
Exits shadow 09:36:09 16° 332° (NNW) 2,101 5.5 -21.2°
Maximum altitude 09:40:47 71° 251° (WSW) 899 3.6 -20.3°
Drops below altitude 10° 09:46:25 10° 168° (SSE) 2,459 6.3 -19.2°
Sets 09:48:51 0° 166° (SSE) 3,385 7.0 -18.7°
